PBO Station Position Time Series. Reference Frame : NAM14
Format Version,1.1.1
4-character ID,WIF3
Station name,Wife_Reset_3
Begin Date, 2018-06-29
End Date, 2022-09-12
Release Date, 2023-03-16
Reference position, 44.0596318463 North Latitude, -121.8175758995 East Longitude, 1947.36253 meters elevation,
Date, North (mm), East (mm), Vertical (mm), North Std. Deviation (mm), East Std. Deviation (mm),              Vertical Std. Deviation (mm), Quality,
2018-06-29,0.00, 0.00, 0.00, 4.08, 3.12, 13.85, campd,
2018-06-30,-2.35, 0.12, -0.40, 4.22, 3.15, 14.16, campd,
2018-07-01,-0.52, -0.85, 15.34, 4.23, 3.18, 14.30, campd,
2018-07-02,-1.45, 0.28, 17.43, 4.08, 3.07, 13.72, campd,
2018-07-03,0.64, 0.74, 7.87, 4.10, 3.14, 14.00, campd,
2018-07-04,-1.65, 0.41, 6.05, 4.11, 3.13, 13.96, campd,
2018-07-05,-2.37, -0.64, 11.23, 4.16, 3.15, 14.14, campd,
2018-07-06,-3.96, -0.05, 2.01, 4.21, 3.17, 14.42, campd,
2018-07-07,-1.97, -0.74, -1.77, 4.12, 3.11, 13.88, campd,
2018-07-08,-0.96, 0.39, 6.63, 4.14, 3.14, 14.10, campd,
2018-07-09,-0.14, 0.67, 6.48, 4.17, 3.15, 14.24, campd,
2018-07-10,-2.99, 0.28, 8.64, 4.13, 3.14, 14.06, campd,
2018-07-11,-0.38, -0.11, -0.48, 4.09, 3.14, 14.05, campd,
2018-07-12,-1.34, -0.89, 6.46, 4.06, 3.13, 13.93, campd,
2018-07-14,-1.47, 1.42, 7.01, 4.14, 3.15, 14.03, campd,
2018-07-15,-3.90, -2.50, 16.79, 4.10, 3.15, 13.97, campd,
2018-07-16,-3.84, -1.81, 10.93, 4.36, 3.40, 14.68, campd,
2018-07-17,-1.72, -0.87, 11.84, 4.10, 3.14, 13.96, campd,
2018-07-18,-0.69, 0.46, 1.17, 4.13, 3.16, 14.13, campd,
2018-07-19,-1.32, 1.82, 7.63, 4.15, 3.15, 14.20, campd,
2018-07-20,0.20, -0.21, 6.00, 4.10, 3.15, 13.99, campd,
2018-07-21,-1.23, -0.27, 6.19, 4.11, 3.13, 13.94, campd,
2018-07-22,-3.42, -0.71, 9.33, 4.18, 3.15, 14.20, campd,
2018-07-23,0.29, -0.47, 6.50, 4.24, 3.21, 14.63, campd,
2018-07-24,-1.20, -0.01, 5.24, 4.24, 3.20, 14.16, campd,
2018-07-25,-0.03, 0.21, 3.69, 4.16, 3.15, 14.09, campd,
2018-07-26,0.08, -2.30, 12.36, 4.09, 3.15, 14.04, campd,
2018-07-27,-2.21, -1.59, 8.34, 4.16, 3.17, 14.24, campd,
2018-07-28,-4.02, -2.10, 8.62, 4.17, 3.17, 14.19, campd,
2018-07-29,-2.05, -0.67, 1.87, 4.20, 3.18, 14.36, campd,
2018-07-30,-2.55, -1.51, 1.05, 4.28, 3.27, 14.78, campd,
2018-07-31,-0.58, 0.00, 4.73, 4.41, 3.33, 15.06, campd,
2018-08-01,-4.62, -1.30, 20.35, 4.27, 3.23, 14.53, campd,
2018-08-02,-2.48, -0.12, 14.21, 4.23, 3.22, 14.37, campd,
2018-08-03,-3.39, 1.51, 18.84, 4.18, 3.16, 14.14, campd,
2018-08-04,-3.80, -0.15, 10.54, 4.08, 3.10, 13.90, campd,
2018-08-05,-2.25, 1.51, 16.31, 4.13, 3.16, 14.18, campd,
2018-08-06,-3.19, -1.35, 22.30, 4.13, 3.15, 14.07, campd,
2018-08-07,-1.10, -0.19, 16.10, 4.15, 3.17, 14.14, campd,
2018-08-08,-2.96, -2.04, 7.69, 4.18, 3.17, 14.26, campd,
2018-08-10,-3.39, -2.25, 4.63, 4.11, 3.11, 13.94, campd,
2018-08-11,-1.82, -2.24, 7.10, 4.13, 3.17, 14.14, campd,
2018-08-12,-2.13, -0.69, 10.93, 4.14, 3.14, 14.06, campd,
2018-08-13,-1.56, -1.44, 17.58, 4.11, 3.13, 13.93, campd,
2018-08-14,-3.24, -1.12, 16.21, 4.11, 3.11, 13.90, campd,
2018-08-15,-2.06, -0.48, 7.69, 4.20, 3.14, 14.18, campd,
2018-08-16,-0.23, -1.88, 9.67, 4.21, 3.18, 14.20, campd,
2018-08-17,0.52, -1.73, 6.42, 4.32, 3.20, 14.49, campd,
2018-08-18,-1.83, -1.29, 13.86, 4.20, 3.18, 14.20, campd,
2018-08-19,-1.84, -1.18, 9.16, 4.11, 3.13, 14.06, campd,
2018-08-20,-6.03, 1.92, 36.60, 8.26, 6.14, 30.81, campd,
2018-08-21,-1.94, 1.81, 14.58, 4.16, 3.14, 14.11, campd,
2018-08-22,-0.11, 0.62, 11.23, 4.36, 3.28, 14.96, campd,
2018-08-23,-3.95, 0.11, 24.00, 4.44, 3.30, 14.86, campd,
2018-08-24,-2.62, -0.46, 17.98, 4.18, 3.14, 14.13, campd,
2018-08-25,-0.95, -0.87, 16.77, 4.05, 3.10, 13.83, campd,
2018-08-26,-0.90, 0.12, 12.69, 4.17, 3.14, 13.95, campd,
2018-08-27,-2.62, 3.02, 6.33, 4.11, 3.13, 14.07, campd,
2018-08-28,-1.12, 0.84, 16.25, 4.14, 3.16, 14.64, campd,
2018-08-29,-2.65, -1.15, 18.29, 4.12, 3.12, 14.02, campd,
2018-08-30,-2.90, -0.71, 17.72, 4.16, 3.12, 14.40, campd,
2018-08-31,-0.80, 0.74, 9.24, 4.09, 3.08, 13.97, campd,
2018-09-01,0.12, -0.66, 14.73, 4.07, 3.10, 13.88, campd,
2018-09-02,-2.64, 1.07, 16.75, 4.07, 3.11, 13.95, campd,
2018-09-03,-1.14, -0.00, 12.12, 4.14, 3.15, 14.17, campd,
2018-09-04,-1.36, -0.02, 13.43, 4.13, 3.14, 14.08, campd,
2018-09-05,-0.07, -0.91, 9.03, 4.19, 3.15, 14.51, campd,
2018-09-06,-1.75, 0.07, 11.86, 4.28, 3.18, 14.32, campd,
2018-09-07,-2.71, -0.06, 11.46, 4.23, 3.17, 14.35, campd,
2018-09-08,-3.34, -1.43, 21.16, 4.08, 3.12, 13.97, campd,
2018-09-09,-2.37, -1.32, 19.70, 4.07, 3.13, 13.93, campd,
2018-09-10,-1.60, 0.57, 17.81, 4.17, 3.13, 14.01, campd,
2018-09-11,-1.87, -0.90, 17.00, 4.15, 3.15, 14.17, campd,
2018-09-12,-2.59, -0.11, 13.75, 4.16, 3.12, 14.09, campd,
2018-09-13,-0.29, -0.19, 8.44, 4.17, 3.14, 14.20, campd,
2018-09-14,-2.86, -1.69, 6.01, 4.23, 3.21, 14.48, campd,
2018-09-15,-0.16, 0.23, 4.08, 4.10, 3.12, 13.88, campd,
2018-09-16,-1.38, -0.46, 12.00, 4.08, 3.10, 13.83, campd,
2018-09-17,0.10, -0.30, 2.72, 4.13, 3.15, 14.05, campd,
2018-09-18,-0.33, -1.77, 4.53, 4.09, 3.14, 14.07, campd,
2018-09-19,-0.75, 1.25, 10.30, 4.07, 3.13, 14.07, campd,
2018-09-20,-0.80, -0.72, 1.58, 4.05, 3.13, 13.94, campd,
2018-09-21,-1.69, -0.53, 6.88, 4.14, 3.15, 14.15, campd,
2018-09-22,-1.76, -1.97, 12.21, 4.21, 3.18, 14.33, campd,
2018-09-23,-1.06, 0.67, 7.73, 4.19, 3.18, 14.32, campd,
2018-09-24,-1.42, 0.27, 12.33, 4.10, 3.17, 14.24, campd,
2018-09-25,-0.85, 0.97, 10.10, 4.13, 3.14, 14.16, campd,
2018-09-26,-0.86, -0.63, 6.55, 4.12, 3.15, 14.20, campd,
2018-09-27,-0.99, -1.32, 14.06, 4.09, 3.12, 13.94, campd,
2018-09-28,-0.53, -0.49, 4.46, 4.07, 3.09, 13.81, campd,
2018-09-29,-0.73, -1.57, 10.39, 4.09, 3.11, 13.97, campd,
2018-09-30,-0.13, 0.48, -1.18, 4.09, 3.12, 13.99, campd,
2018-10-01,-1.12, -0.26, 3.29, 4.14, 3.14, 14.17, campd,
2018-10-02,-1.36, 0.11, 16.20, 4.08, 3.11, 13.78, campd,
2018-10-03,-1.85, -0.01, 6.88, 4.19, 3.17, 14.34, campd,
2018-10-04,-2.51, -0.21, 7.77, 4.17, 3.16, 14.11, campd,
2018-10-05,-0.20, -0.21, 9.06, 4.15, 3.15, 14.26, campd,
2018-10-06,-2.07, 1.03, -6.61, 4.08, 3.14, 14.16, campd,
2018-10-07,-1.24, 1.26, 8.02, 4.23, 3.26, 14.81, campd,
2018-10-08,-2.20, 0.33, 1.48, 4.14, 3.13, 14.12, campd,
2018-10-09,-3.51, -1.29, 5.18, 4.12, 3.14, 14.31, campd,
2018-10-10,0.05, 0.05, 4.89, 4.18, 3.17, 14.30, campd,
2018-10-11,-3.71, -0.84, 15.79, 4.06, 3.12, 14.05, campd,
2018-10-12,-2.36, 0.77, 10.12, 4.04, 3.12, 13.97, campd,
2018-10-13,-0.39, -0.75, 16.70, 4.21, 3.17, 14.27, campd,
2018-10-14,0.49, 0.71, 13.81, 4.14, 3.13, 13.98, campd,
2018-10-15,-1.01, 0.57, 8.00, 4.06, 3.10, 13.72, campd,
2018-10-16,-0.14, -0.31, 10.03, 4.12, 3.17, 14.15, campd,
2018-10-17,-1.07, 0.81, 2.52, 4.06, 3.12, 13.93, campd,
2021-07-26,-1.25, -1.96, 11.11, 2.60, 2.01, 8.95, suppf,
2021-07-27,-1.44, -2.17, 7.02, 2.67, 2.04, 9.09, suppf,
2021-07-28,1.00, -0.99, -1.31, 2.64, 2.02, 9.14, suppf,
2021-07-29,-0.01, -0.20, -4.97, 2.66, 2.04, 9.14, suppf,
2021-07-30,-0.33, -0.59, 5.83, 2.70, 2.07, 9.14, suppf,
2021-07-31,-0.35, -3.09, 0.06, 2.63, 2.03, 9.07, suppf,
2021-08-01,0.26, -2.23, 6.26, 2.65, 2.04, 9.11, suppf,
2021-08-02,-1.02, -2.50, 7.01, 2.67, 2.05, 9.28, suppf,
2021-08-03,-0.35, -1.60, -0.52, 2.63, 2.05, 9.06, suppf,
2021-08-04,-0.06, 0.33, 4.90, 2.66, 2.03, 9.18, suppf,
2021-08-05,-0.37, -1.96, 5.27, 2.63, 2.05, 9.23, suppf,
2021-08-06,-0.89, -1.74, 7.93, 2.69, 2.05, 9.19, suppf,
2021-08-07,0.63, -0.95, 11.00, 2.67, 2.05, 9.08, suppf,
2021-08-08,1.25, -0.89, 7.91, 2.16, 1.61, 7.97, suppf,
2021-08-09,-1.31, -0.98, 15.28, 2.10, 1.58, 7.59, suppf,
2021-08-10,-0.26, -1.28, 9.47, 2.11, 1.58, 7.69, suppf,
2021-08-11,-1.17, -2.53, 14.02, 2.10, 1.61, 7.75, suppf,
2021-08-12,-0.31, -0.50, 9.47, 2.12, 1.59, 7.73, suppf,
2021-08-13,1.71, -1.24, -0.61, 2.14, 1.59, 7.80, suppf,
2021-08-14,-0.71, -0.20, 6.12, 2.14, 1.61, 7.86, suppf,
2021-08-15,-0.87, -1.43, 6.35, 2.11, 1.60, 7.69, suppf,
2021-08-16,-2.54, -2.81, 14.84, 2.09, 1.58, 7.57, suppf,
2021-08-17,-0.70, -1.43, 13.31, 2.10, 1.60, 7.71, suppf,
2021-08-18,-1.16, 0.20, 8.51, 2.12, 1.59, 7.64, suppf,
2021-08-19,0.12, 0.69, 6.45, 2.10, 1.57, 7.59, suppf,
2021-08-20,-0.92, 0.89, 7.34, 2.11, 1.60, 7.68, suppf,
2021-08-21,-2.13, -1.34, 14.55, 2.13, 1.66, 8.00, suppf,
2021-08-22,-1.76, -2.47, 22.13, 2.10, 1.62, 7.78, suppf,
2021-08-23,0.00, -0.93, 8.05, 2.13, 1.63, 7.76, suppf,
2021-08-24,2.06, 0.27, 6.54, 2.11, 1.61, 7.73, suppf,
2021-08-25,-0.49, 0.26, 8.51, 2.13, 1.62, 7.77, suppf,
2021-08-26,-1.81, -1.26, 17.19, 2.09, 1.60, 7.63, suppf,
2021-08-27,-1.74, -0.70, 5.83, 2.09, 1.59, 7.66, suppf,
2021-08-28,-0.58, -1.88, 13.35, 2.08, 1.59, 7.60, suppf,
2021-08-29,0.15, -1.46, 14.45, 2.07, 1.58, 7.56, suppf,
2021-08-30,0.22, -0.65, 14.78, 2.10, 1.56, 7.53, suppf,
2021-08-31,-0.16, -0.65, 15.00, 2.12, 1.59, 7.70, suppf,
2022-08-10,-3.79, 2.10, 7.51, 5.36, 4.29, 19.50, suppf,
2022-08-11,-2.35, 0.57, 8.65, 2.09, 1.62, 8.01, suppf,
2022-08-12,-3.49, 0.65, 10.21, 2.08, 1.63, 7.93, suppf,
2022-08-13,-1.13, 0.15, 1.90, 2.04, 1.55, 7.75, suppf,
2022-08-14,-2.08, -1.19, 8.39, 2.05, 1.57, 7.76, suppf,
2022-08-15,-1.25, 0.34, -1.22, 2.02, 1.55, 7.65, suppf,
2022-08-16,-2.11, 0.22, 5.45, 2.06, 1.59, 7.84, suppf,
2022-08-17,-2.63, 0.11, 13.46, 2.04, 1.57, 7.76, suppf,
2022-08-18,-1.79, 0.91, -5.24, 2.05, 1.55, 7.77, suppf,
2022-08-19,-1.27, -0.56, 8.48, 2.07, 1.58, 7.80, suppf,
2022-08-20,-1.20, -0.03, 0.92, 2.04, 1.54, 7.61, suppf,
2022-08-21,-1.46, -1.12, 13.84, 2.04, 1.54, 7.63, suppf,
2022-08-22,-3.48, -0.67, 7.84, 2.06, 1.56, 7.77, suppf,
2022-08-23,-2.15, 0.41, 6.82, 2.18, 1.67, 8.25, suppf,
2022-08-24,-2.13, 0.25, 1.67, 2.21, 1.70, 8.38, suppf,
2022-08-25,-2.90, -1.14, 13.61, 2.11, 1.60, 7.96, suppf,
2022-08-26,-3.27, 0.00, 14.47, 2.10, 1.59, 7.84, suppf,
2022-08-27,-3.64, 1.03, 15.80, 2.09, 1.62, 7.91, suppf,
2022-08-28,-1.01, 0.63, 18.37, 2.05, 1.57, 7.63, suppf,
2022-08-29,-2.05, 0.54, 14.14, 2.05, 1.55, 7.63, suppf,
2022-08-30,-1.96, -1.73, 13.22, 2.04, 1.57, 7.69, suppf,
2022-08-31,-1.55, 0.26, 12.28, 2.07, 1.59, 7.78, suppf,
2022-09-01,-0.77, 0.67, 11.97, 2.04, 1.53, 7.54, suppf,
2022-09-02,-1.79, -0.06, 11.11, 2.05, 1.58, 7.80, suppf,
2022-09-03,-1.86, -0.26, 17.31, 2.03, 1.57, 7.59, suppf,
2022-09-04,-2.62, 0.81, 16.27, 2.04, 1.53, 7.60, suppf,
2022-09-05,-2.45, -0.53, 17.25, 2.10, 1.56, 7.90, suppf,
2022-09-06,-2.25, -0.09, 17.35, 2.02, 1.54, 7.46, suppf,
2022-09-07,-1.68, 0.90, 11.45, 2.05, 1.56, 7.67, suppf,
2022-09-08,-1.38, -0.87, 15.49, 2.09, 1.63, 7.94, suppf,
2022-09-09,-2.84, -0.22, 20.23, 2.06, 1.55, 7.54, suppf,
2022-09-10,-2.43, 0.87, 19.52, 2.06, 1.57, 7.60, suppf,
2022-09-11,-2.74, -0.15, 21.46, 2.07, 1.55, 7.55, suppf,
2022-09-12,1.41, 0.30, 12.20, 2.10, 1.61, 7.84, suppf,
